This is the latest recevied weather packets stored in our database for station/object SP9MUF-14. If no packets are shown the sender has not sent any weather packets the latest 1 day(s).
| Time | Temp. | Humidity | Pressure | Rain* | Wind** | Luminosity | Snow |
|---|---|---|---|---|---|---|---|
| 1778025090 | 17.78° C | 43% | 1006.3 hPa | 0 mm | - | 0 W/m² | - |
| 1778024177 | 18.89° C | 42% | 1006.3 hPa | 0 mm | - | 0 W/m² | - |
| 1778023873 | 18.89° C | 39% | 1006.2 hPa | 0 mm | - | 0 W/m² | - |
| 1778022961 | 20° C | 38% | 1006.4 hPa | 0 mm | - | 0 W/m² | - |
| 1778021441 | 20° C | 38% | 1006.5 hPa | 0 mm | - | 0 W/m² | - |
| 1778020833 | 20° C | 37% | 1006.5 hPa | 0 mm | - | 0 W/m² | - |
| 1778020529 | 20° C | 37% | 1006.5 hPa | 0 mm | - | 0 W/m² | - |
| 1778020225 | 20° C | 36% | 1006.5 hPa | 0 mm | - | 0 W/m² | - |
| 1778019617 | 20° C | 35% | 1006.4 hPa | 0 mm | - | 0 W/m² | - |
| 1778019313 | 20.56° C | 34% | 1006.5 hPa | 0 mm | - | 0 W/m² | - |
| 1778019009 | 20.56° C | 34% | 1006.5 hPa | 0 mm | - | 0 W/m² | - |
| 1778017793 | 18.89° C | 36% | 1006.9 hPa | 0 mm | - | 0 W/m² | - |
| 1778017185 | 18.89° C | 36% | 1006.9 hPa | 0 mm | - | 0 W/m² | - |
| 1778016577 | 18.89° C | 36% | 1006.9 hPa | 0 mm | - | 0 W/m² | - |
| 1778016273 | 18.89° C | 36% | 1006.9 hPa | 0 mm | - | 0 W/m² | - |
| 1778015362 | 18.89° C | 37% | 1006.9 hPa | 0 mm | - | 0 W/m² | - |
| 1778014753 | 18.89° C | 37% | 1006.9 hPa | 0 mm | - | 0 W/m² | - |
| 1778014145 | 18.89° C | 35% | 1007 hPa | 0 mm | - | 0 W/m² | - |
| 1778013536 | 18.89° C | 35% | 1006.9 hPa | 0 mm | - | 0 W/m² | - |
| 1778013232 | 18.89° C | 35% | 1006.9 hPa | 0 mm | - | 0 W/m² | - |
| 1778012928 | 18.89° C | 35% | 1007 hPa | 0 mm | - | 0 W/m² | - |
| 1778012624 | 18.89° C | 36% | 1007 hPa | 0 mm | - | 0 W/m² | - |
| 1778012320 | 18.89° C | 35% | 1006.9 hPa | 0 mm | - | 0 W/m² | - |
| 1778012016 | 18.89° C | 35% | 1006.8 hPa | 0 mm | - | 0 W/m² | - |
| 1778010800 | 18.89° C | 33% | 1006.7 hPa | 0 mm | - | 0 W/m² | - |
* Rain latest hour (hover to see other rain measurements)
** Current wind speed in m/s (hover to see current wind gust speed)